AAL1332 KDEN-KLAX

Flight info

Callsign AAL1332
Flight time 2h 17m
Altitude 38000
Route BAYLR6 TEHRU JASSE Q90 DNERO ANJLL4
Aircraft A20N/M-SDE2E3FGHIRWXY/LB1

Departure

Time 2026-04-26 03:54
Airport Denver International Airport (KDEN)

Arrival

Time 2026-04-26 06:11
Airport Los Angeles International Airport (KLAX)
Time Latitude Longitude Altitude Speed Heading
2026-04-26 03:29 39.86264 -104.67687 5374 ft 0 kts 360°
2026-04-26 03:40 39.86259 -104.67687 5373 ft 1 kts 360°
2026-04-26 03:40 39.86250 -104.67687 5368 ft 2 kts 360°
2026-04-26 03:40 39.86235 -104.67687 5370 ft 2 kts
2026-04-26 03:41 39.86220 -104.67687 5368 ft 2 kts
2026-04-26 03:41 39.86205 -104.67687 5371 ft 2 kts
2026-04-26 03:41 39.86199 -104.67687 5371 ft 0 kts
2026-04-26 03:46 39.86200 -104.67687 5371 ft 1 kts
2026-04-26 03:46 39.86202 -104.67687 5371 ft 0 kts 360°
2026-04-26 03:47 39.86204 -104.67689 5371 ft 1 kts 337°
2026-04-26 03:47 39.86200 -104.67737 5371 ft 11 kts 234°
2026-04-26 03:47 39.86143 -104.67819 5371 ft 13 kts 244°
2026-04-26 03:47 39.86138 -104.67952 5368 ft 17 kts 270°
2026-04-26 03:48 39.86138 -104.68114 5366 ft 19 kts 269°
2026-04-26 03:48 39.86096 -104.68199 5367 ft 2 kts 194°
2026-04-26 03:48 39.86132 -104.68265 5365 ft 16 kts 291°
2026-04-26 03:48 39.86124 -104.68389 5366 ft 15 kts 221°
2026-04-26 03:49 39.86013 -104.68396 5365 ft 17 kts 180°
2026-04-26 03:49 39.85890 -104.68396 5367 ft 18 kts 180°
2026-04-26 03:49 39.85802 -104.68398 5369 ft 13 kts 180°
2026-04-26 03:49 39.85708 -104.68399 5372 ft 14 kts 181°
2026-04-26 03:50 39.85610 -104.68400 5372 ft 15 kts 179°
2026-04-26 03:50 39.85504 -104.68402 5374 ft 16 kts 181°
2026-04-26 03:50 39.85395 -104.68402 5376 ft 14 kts 180°
2026-04-26 03:50 39.85290 -104.68400 5379 ft 16 kts 181°
2026-04-26 03:51 39.85207 -104.68480 5377 ft 19 kts 265°
2026-04-26 03:51 39.85206 -104.68681 5368 ft 26 kts 268°
2026-04-26 03:51 39.85200 -104.68840 5360 ft 20 kts 268°
2026-04-26 03:51 39.85196 -104.69052 5352 ft 27 kts 271°
2026-04-26 03:52 39.85198 -104.69298 5343 ft 19 kts 270°
2026-04-26 03:52 39.85205 -104.69493 5334 ft 21 kts 270°
2026-04-26 03:52 39.85220 -104.69648 5335 ft 13 kts 311°
2026-04-26 03:52 39.85270 -104.69659 5333 ft 0 kts 359°
2026-04-26 03:53 39.85349 -104.69659 5336 ft 39 kts
2026-04-26 03:53 39.85828 -104.69650 5341 ft 97 kts 359°
2026-04-26 03:53 39.86672 -104.69639 5334 ft 142 kts
2026-04-26 03:54 39.87781 -104.69637 5331 ft 175 kts
2026-04-26 03:54 39.89049 -104.69637 5655 ft 183 kts
2026-04-26 03:54 39.90333 -104.69649 6216 ft 187 kts
2026-04-26 03:54 39.91675 -104.69652 6592 ft 202 kts
2026-04-26 03:55 39.93116 -104.69652 7015 ft 206 kts
2026-04-26 03:55 39.94528 -104.69655 7661 ft 206 kts
2026-04-26 03:55 39.96032 -104.69654 7979 ft 228 kts
2026-04-26 03:55 39.97719 -104.69652 8262 ft 256 kts
2026-04-26 03:56 39.99579 -104.69651 8657 ft 280 kts 360°
2026-04-26 03:56 40.01586 -104.69944 9084 ft 300 kts 339°
2026-04-26 03:56 40.03398 -104.71302 9704 ft 302 kts 314°
2026-04-26 03:56 40.04642 -104.73433 9918 ft 292 kts 289°
2026-04-26 03:57 40.05077 -104.75960 9971 ft 282 kts 264°
2026-04-26 03:57 40.04636 -104.78389 9975 ft 274 kts 239°
2026-04-26 03:57 40.03425 -104.80243 9971 ft 269 kts 213°
2026-04-26 03:57 40.01714 -104.81145 9974 ft 268 kts 189°
2026-04-26 03:58 39.99859 -104.81464 9979 ft 268 kts 188°
2026-04-26 03:58 39.98020 -104.81847 9981 ft 268 kts 191°
2026-04-26 03:58 39.96198 -104.82398 10072 ft 271 kts 195°
2026-04-26 03:58 39.94372 -104.83087 10625 ft 275 kts 197°
2026-04-26 03:59 39.92546 -104.83847 11503 ft 277 kts 199°
2026-04-26 03:59 39.90691 -104.84647 12283 ft 284 kts 199°
2026-04-26 03:59 39.88800 -104.85472 13063 ft 290 kts 200°
2026-04-26 03:59 39.86870 -104.86315 13848 ft 295 kts 201°
2026-04-26 04:00 39.84916 -104.87164 14621 ft 296 kts 201°
2026-04-26 04:00 39.82964 -104.88011 15446 ft 296 kts 201°
2026-04-26 04:00 39.81033 -104.88848 16220 ft 298 kts 201°
2026-04-26 04:00 39.79119 -104.89858 16993 ft 297 kts 214°
2026-04-26 04:01 39.77600 -104.91649 17749 ft 297 kts 234°
2026-04-26 04:01 39.76696 -104.94060 18452 ft 301 kts 252°
2026-04-26 04:01 39.76132 -104.96685 19106 ft 303 kts 252°
2026-04-26 04:01 39.75565 -104.99326 19789 ft 304 kts 252°
2026-04-26 04:02 39.74986 -105.01974 20447 ft 306 kts 251°
2026-04-26 04:02 39.74229 -105.04561 21080 ft 307 kts 246°
2026-04-26 04:02 39.73382 -105.07122 21726 ft 309 kts 246°
2026-04-26 04:02 39.72536 -105.09699 22366 ft 311 kts 246°
2026-04-26 04:03 39.71688 -105.12288 22995 ft 313 kts 246°
2026-04-26 04:03 39.70833 -105.14901 23573 ft 316 kts 246°
2026-04-26 04:03 39.69973 -105.17527 24095 ft 316 kts 246°
2026-04-26 04:03 39.69111 -105.20155 24663 ft 316 kts 247°
2026-04-26 04:04 39.68249 -105.22779 25208 ft 316 kts 247°
2026-04-26 04:04 39.67382 -105.25414 25687 ft 318 kts 247°
2026-04-26 04:04 39.66512 -105.28057 26187 ft 319 kts 247°
2026-04-26 04:04 39.65640 -105.30708 26686 ft 320 kts 248°
2026-04-26 04:05 39.64764 -105.33362 27175 ft 320 kts 248°
2026-04-26 04:05 39.63885 -105.36023 27642 ft 322 kts 248°
2026-04-26 04:05 39.63002 -105.38696 28089 ft 323 kts 248°
2026-04-26 04:05 39.62116 -105.41379 28533 ft 324 kts 248°
2026-04-26 04:06 39.61227 -105.44074 28983 ft 325 kts 248°
2026-04-26 04:06 39.60336 -105.46772 29372 ft 327 kts 248°
2026-04-26 04:06 39.59450 -105.49454 29764 ft 328 kts 248°
2026-04-26 04:06 39.58547 -105.52176 30130 ft 330 kts 248°
2026-04-26 04:07 39.57636 -105.54909 30484 ft 330 kts 248°
2026-04-26 04:07 39.56725 -105.57641 30883 ft 329 kts 248°
2026-04-26 04:07 39.55817 -105.60361 31277 ft 328 kts 248°
2026-04-26 04:07 39.54967 -105.63091 31693 ft 327 kts 251°
2026-04-26 04:08 39.54209 -105.65865 32124 ft 325 kts 251°
2026-04-26 04:08 39.53449 -105.68627 32517 ft 325 kts 251°
2026-04-26 04:08 39.52691 -105.71376 32889 ft 324 kts 250°
2026-04-26 04:08 39.51932 -105.74117 33273 ft 323 kts 250°
2026-04-26 04:09 39.51174 -105.76854 33574 ft 322 kts 250°
2026-04-26 04:09 39.50416 -105.79585 33861 ft 323 kts 250°
2026-04-26 04:09 39.49656 -105.82319 34111 ft 323 kts 250°
2026-04-26 04:09 39.48895 -105.85056 34335 ft 323 kts 251°
2026-04-26 04:10 39.48133 -105.87793 34566 ft 323 kts 250°
2026-04-26 04:10 39.47372 -105.90525 34799 ft 323 kts 250°
2026-04-26 04:10 39.46610 -105.93256 35045 ft 322 kts 251°
2026-04-26 04:10 39.45848 -105.95987 35251 ft 323 kts 251°
2026-04-26 04:11 39.45086 -105.98712 35488 ft 322 kts 251°
2026-04-26 04:11 39.44322 -106.01441 35726 ft 323 kts 251°
2026-04-26 04:11 39.43557 -106.04169 35948 ft 323 kts 251°
2026-04-26 04:11 39.42790 -106.06903 36092 ft 324 kts 251°
2026-04-26 04:12 39.42018 -106.09657 36217 ft 326 kts 251°
2026-04-26 04:12 39.41245 -106.12407 36394 ft 326 kts 250°
2026-04-26 04:12 39.40465 -106.15173 36578 ft 327 kts 251°
2026-04-26 04:12 39.39684 -106.17946 36759 ft 329 kts 251°
2026-04-26 04:13 39.38910 -106.20690 36952 ft 330 kts 251°
2026-04-26 04:13 39.38112 -106.23517 37080 ft 332 kts 251°
2026-04-26 04:13 39.37317 -106.26327 37203 ft 334 kts 251°
2026-04-26 04:13 39.36520 -106.29145 37426 ft 334 kts 251°
2026-04-26 04:14 39.35721 -106.31964 37597 ft 334 kts 251°
2026-04-26 04:14 39.34124 -106.37591 37802 ft 337 kts 251°
2026-04-26 04:14 39.33316 -106.40434 37903 ft 338 kts 251°
2026-04-26 04:15 39.32502 -106.43297 37984 ft 341 kts 251°
2026-04-26 04:15 39.30869 -106.49025 37950 ft 338 kts 251°
2026-04-26 04:16 39.29239 -106.54724 37917 ft 339 kts 251°
2026-04-26 04:16 39.27606 -106.60436 37844 ft 338 kts 251°
2026-04-26 04:17 39.25989 -106.66068 37877 ft 334 kts 251°
2026-04-26 04:17 39.24115 -106.71626 37910 ft 342 kts 244°
2026-04-26 04:18 39.21561 -106.76795 37937 ft 343 kts 237°
2026-04-26 04:18 39.18691 -106.81721 37932 ft 344 kts 237°
2026-04-26 04:19 39.15854 -106.86626 37955 ft 334 kts 237°
2026-04-26 04:19 39.13049 -106.91485 37925 ft 342 kts 237°
2026-04-26 04:20 39.10229 -106.96350 38092 ft 334 kts 237°
2026-04-26 04:20 39.08850 -106.98706 38485 ft 326 kts 238°
2026-04-26 04:20 39.07488 -107.01025 38659 ft 324 kts 237°
2026-04-26 04:21 39.04763 -107.05662 38697 ft 327 kts 237°
2026-04-26 04:21 39.02010 -107.10336 38689 ft 329 kts 237°
2026-04-26 04:22 38.99227 -107.15047 38713 ft 331 kts 237°
2026-04-26 04:22 38.96438 -107.19756 38874 ft 331 kts 237°
2026-04-26 04:23 38.93628 -107.24494 38945 ft 335 kts 237°
2026-04-26 04:23 38.90807 -107.29242 39140 ft 334 kts 237°
2026-04-26 04:24 38.87978 -107.33990 39218 ft 336 kts 237°
2026-04-26 04:24 38.85125 -107.38763 39272 ft 337 kts 237°
2026-04-26 04:25 38.82260 -107.43538 39388 ft 338 kts 236°
2026-04-26 04:25 38.79385 -107.48318 39489 ft 339 kts 237°
2026-04-26 04:26 38.76490 -107.53123 39587 ft 341 kts 236°
2026-04-26 04:26 38.73582 -107.57937 39677 ft 342 kts 236°
2026-04-26 04:27 38.70664 -107.62755 39803 ft 343 kts 236°
2026-04-26 04:27 38.67734 -107.67579 39904 ft 344 kts 236°
2026-04-26 04:28 38.64790 -107.72413 40013 ft 345 kts 236°
2026-04-26 04:28 38.61834 -107.77250 40105 ft 346 kts 236°
2026-04-26 04:29 38.58864 -107.82098 40227 ft 347 kts 236°
2026-04-26 04:29 38.55882 -107.86949 40297 ft 348 kts 236°
2026-04-26 04:30 38.52886 -107.91809 40361 ft 348 kts 236°
2026-04-26 04:30 38.49901 -107.96637 40409 ft 349 kts 236°
2026-04-26 04:31 38.46884 -108.01503 40435 ft 350 kts 236°
2026-04-26 04:31 38.43862 -108.06363 40443 ft 350 kts 236°
2026-04-26 04:32 38.40823 -108.11237 40406 ft 352 kts 236°
2026-04-26 04:32 38.37771 -108.16117 40426 ft 352 kts 236°
2026-04-26 04:33 38.34710 -108.20992 40417 ft 353 kts 235°
2026-04-26 04:33 38.31628 -108.25878 40423 ft 354 kts 235°
2026-04-26 04:34 38.29061 -108.29938 40470 ft 354 kts 235°
2026-04-26 04:34 38.25960 -108.34828 40523 ft 355 kts 235°
2026-04-26 04:35 38.22847 -108.39724 40581 ft 357 kts 235°
2026-04-26 04:35 38.19722 -108.44628 40656 ft 357 kts 235°
2026-04-26 04:36 38.16591 -108.49526 40707 ft 357 kts 235°
2026-04-26 04:36 38.13449 -108.54430 40729 ft 358 kts 235°
2026-04-26 04:37 38.10297 -108.59333 40769 ft 359 kts 235°
2026-04-26 04:37 38.07136 -108.64237 40803 ft 359 kts 235°
2026-04-26 04:38 38.03965 -108.69142 40848 ft 360 kts 235°
2026-04-26 04:38 38.00783 -108.74051 40884 ft 360 kts 235°
2026-04-26 04:39 37.97595 -108.78953 40934 ft 361 kts 235°
2026-04-26 04:39 37.94399 -108.83852 40967 ft 361 kts 234°
2026-04-26 04:40 37.91200 -108.88744 40957 ft 361 kts 234°
2026-04-26 04:40 37.87987 -108.93641 40988 ft 362 kts 234°
2026-04-26 04:41 37.84765 -108.98538 41051 ft 362 kts 234°
2026-04-26 04:41 37.81538 -109.03428 41081 ft 362 kts 234°
2026-04-26 04:42 37.78304 -109.08313 41111 ft 362 kts 234°
2026-04-26 04:42 37.75064 -109.13193 41161 ft 362 kts 234°
2026-04-26 04:43 37.71838 -109.18038 41230 ft 363 kts 234°
2026-04-26 04:43 37.68585 -109.22910 41302 ft 363 kts 234°
2026-04-26 04:44 37.65326 -109.27775 41354 ft 363 kts 234°
2026-04-26 04:44 37.62053 -109.32647 41397 ft 364 kts 234°
2026-04-26 04:45 37.58779 -109.37507 41469 ft 364 kts 234°
2026-04-26 04:45 37.55475 -109.42401 41125 ft 375 kts 234°
2026-04-26 04:45 37.53770 -109.44936 40652 ft 382 kts 234°
2026-04-26 04:46 37.52075 -109.47477 40371 ft 373 kts 234°
2026-04-26 04:46 37.50440 -109.49959 40124 ft 363 kts 237°
2026-04-26 04:46 37.48915 -109.52473 39561 ft 362 kts 237°
2026-04-26 04:46 37.47387 -109.55028 38752 ft 369 kts 237°
2026-04-26 04:47 37.45845 -109.57613 38156 ft 369 kts 237°
2026-04-26 04:47 37.44297 -109.60203 37925 ft 374 kts 237°
2026-04-26 04:47 37.42719 -109.62838 37854 ft 380 kts 237°
2026-04-26 04:48 37.37919 -109.70826 37801 ft 381 kts 237°
2026-04-26 04:48 37.34718 -109.76135 37770 ft 381 kts 237°
2026-04-26 04:49 37.31513 -109.81443 37742 ft 382 kts 237°
2026-04-26 04:49 37.28303 -109.86749 37745 ft 381 kts 237°
2026-04-26 04:50 37.25094 -109.92046 37738 ft 382 kts 237°
2026-04-26 04:50 37.21901 -109.97310 37750 ft 383 kts 237°
2026-04-26 04:51 37.18688 -110.02592 37742 ft 380 kts 237°
2026-04-26 04:51 37.15450 -110.07914 37736 ft 382 kts 237°
2026-04-26 04:52 37.12253 -110.13158 37728 ft 381 kts 237°
2026-04-26 04:52 37.09035 -110.18428 37729 ft 381 kts 237°
2026-04-26 04:53 37.05818 -110.23689 37729 ft 381 kts 237°
2026-04-26 04:53 37.02598 -110.28945 37727 ft 380 kts 237°
2026-04-26 04:54 36.99378 -110.34196 37735 ft 380 kts 237°
2026-04-26 04:54 36.96157 -110.39438 37730 ft 380 kts 237°
2026-04-26 04:55 36.92930 -110.44677 37735 ft 380 kts 237°
2026-04-26 04:55 36.89710 -110.49903 37731 ft 380 kts 237°
2026-04-26 04:56 36.86489 -110.55122 37733 ft 379 kts 237°
2026-04-26 04:56 36.83272 -110.60327 37735 ft 379 kts 237°
2026-04-26 04:57 36.80057 -110.65522 37735 ft 378 kts 237°
2026-04-26 04:57 36.76835 -110.70720 37734 ft 378 kts 237°
2026-04-26 04:58 36.73615 -110.75902 37735 ft 378 kts 237°
2026-04-26 04:58 36.70392 -110.81085 37735 ft 378 kts 237°
2026-04-26 04:59 36.67167 -110.86263 37732 ft 378 kts 238°
2026-04-26 04:59 36.63995 -110.91472 37735 ft 378 kts 238°
2026-04-26 05:00 36.60774 -110.96582 37740 ft 377 kts 237°
2026-04-26 05:00 36.57513 -111.01748 37739 ft 377 kts 237°
2026-04-26 05:01 36.54312 -111.06846 37739 ft 377 kts 237°
2026-04-26 05:01 36.51086 -111.11982 37745 ft 377 kts 237°
2026-04-26 05:02 36.47857 -111.17116 37743 ft 377 kts 237°
2026-04-26 05:02 36.44633 -111.22233 37739 ft 376 kts 237°
2026-04-26 05:03 36.41407 -111.27348 37739 ft 376 kts 237°
2026-04-26 05:03 36.38183 -111.32449 37732 ft 376 kts 237°
2026-04-26 05:04 36.34960 -111.37544 37729 ft 375 kts 237°
2026-04-26 05:04 36.31737 -111.42631 37719 ft 375 kts 237°
2026-04-26 05:05 36.28507 -111.47721 37727 ft 375 kts 237°
2026-04-26 05:05 36.25276 -111.52805 37724 ft 375 kts 237°
2026-04-26 05:06 36.22042 -111.57887 37725 ft 376 kts 237°
2026-04-26 05:06 36.18799 -111.62975 37744 ft 377 kts 237°
2026-04-26 05:07 36.15541 -111.68081 37748 ft 378 kts 237°
2026-04-26 05:07 36.12285 -111.73171 37749 ft 374 kts 237°
2026-04-26 05:08 36.09074 -111.78277 37784 ft 377 kts 239°
2026-04-26 05:08 36.06406 -111.83802 37824 ft 371 kts 247°
2026-04-26 05:09 36.04410 -111.89666 37858 ft 370 kts 251°
2026-04-26 05:09 36.02543 -111.95549 37895 ft 364 kts 251°
2026-04-26 05:10 36.00673 -112.01390 37907 ft 367 kts 251°
2026-04-26 05:10 35.98795 -112.07259 37956 ft 368 kts 250°
2026-04-26 05:11 35.96908 -112.13124 37954 ft 367 kts 250°
2026-04-26 05:11 35.95024 -112.18972 37953 ft 366 kts 250°
2026-04-26 05:12 35.93151 -112.24778 37952 ft 366 kts 250°
2026-04-26 05:12 35.91266 -112.30611 37921 ft 366 kts 250°
2026-04-26 05:13 35.89366 -112.36477 37878 ft 366 kts 250°
2026-04-26 05:13 35.87490 -112.42259 37837 ft 365 kts 250°
2026-04-26 05:14 35.85598 -112.48078 37818 ft 366 kts 250°
2026-04-26 05:14 35.83701 -112.53901 37772 ft 366 kts 250°
2026-04-26 05:15 35.81800 -112.59724 37747 ft 367 kts 250°
2026-04-26 05:15 35.79893 -112.65555 37751 ft 367 kts 250°
2026-04-26 05:16 35.77979 -112.71395 37749 ft 368 kts 250°
2026-04-26 05:16 35.76061 -112.77236 37741 ft 368 kts 250°
2026-04-26 05:17 35.74138 -112.83081 37741 ft 369 kts 250°
2026-04-26 05:17 35.72208 -112.88934 37740 ft 369 kts 250°
2026-04-26 05:18 35.70274 -112.94791 37742 ft 370 kts 250°
2026-04-26 05:18 35.68335 -113.00651 37744 ft 370 kts 250°
2026-04-26 05:19 35.66388 -113.06522 37739 ft 371 kts 250°
2026-04-26 05:19 35.64447 -113.12365 37729 ft 368 kts 249°
2026-04-26 05:20 35.62505 -113.18199 37731 ft 369 kts 249°
2026-04-26 05:20 35.60889 -113.23049 37722 ft 368 kts 249°
2026-04-26 05:21 35.58943 -113.28869 37723 ft 369 kts 249°
2026-04-26 05:21 35.56994 -113.34693 37714 ft 369 kts 249°
2026-04-26 05:22 35.55042 -113.40514 37719 ft 369 kts 249°
2026-04-26 05:22 35.53088 -113.46331 37715 ft 369 kts 249°
2026-04-26 05:23 35.51128 -113.52150 37712 ft 369 kts 249°
2026-04-26 05:23 35.49165 -113.57972 37703 ft 369 kts 249°
2026-04-26 05:24 35.47203 -113.63776 37718 ft 365 kts 249°
2026-04-26 05:24 35.45267 -113.69493 37744 ft 366 kts 249°
2026-04-26 05:25 35.43300 -113.75297 37773 ft 369 kts 249°
2026-04-26 05:25 35.41326 -113.81101 37801 ft 368 kts 249°
2026-04-26 05:26 35.39353 -113.86896 37832 ft 369 kts 249°
2026-04-26 05:26 35.37377 -113.92689 37847 ft 368 kts 249°
2026-04-26 05:27 35.35400 -113.98474 37835 ft 368 kts 248°
2026-04-26 05:27 35.33423 -114.04247 37829 ft 367 kts 249°
2026-04-26 05:28 35.31445 -114.10011 37807 ft 367 kts 249°
2026-04-26 05:28 35.29466 -114.15772 37788 ft 367 kts 248°
2026-04-26 05:29 35.27482 -114.21534 37767 ft 368 kts 248°
2026-04-26 05:29 35.25504 -114.27264 37706 ft 368 kts 248°
2026-04-26 05:30 35.23513 -114.33026 37711 ft 368 kts 248°
2026-04-26 05:30 35.21516 -114.38792 37708 ft 368 kts 248°
2026-04-26 05:31 35.19514 -114.44562 37718 ft 369 kts 248°
2026-04-26 05:31 35.17508 -114.50335 37717 ft 369 kts 248°
2026-04-26 05:32 35.15493 -114.56121 37719 ft 370 kts 248°
2026-04-26 05:32 35.13474 -114.61910 37719 ft 370 kts 248°
2026-04-26 05:33 35.11461 -114.67699 37717 ft 370 kts 248°
2026-04-26 05:33 35.09449 -114.73490 37715 ft 370 kts 248°
2026-04-26 05:34 35.07436 -114.79275 37710 ft 370 kts 248°
2026-04-26 05:34 35.05415 -114.85068 37712 ft 371 kts 248°
2026-04-26 05:35 35.03356 -114.90840 37711 ft 371 kts 245°
2026-04-26 05:35 35.00951 -114.96425 37722 ft 372 kts 244°
2026-04-26 05:36 34.98531 -115.02013 37877 ft 373 kts 242°
2026-04-26 05:36 34.97312 -115.04850 37736 ft 380 kts 241°
2026-04-26 05:36 34.96072 -115.07713 37745 ft 383 kts 241°
2026-04-26 05:37 34.93604 -115.13396 37752 ft 382 kts 241°
2026-04-26 05:37 34.91096 -115.19157 37751 ft 382 kts 241°
2026-04-26 05:38 34.88618 -115.24840 37758 ft 383 kts 241°
2026-04-26 05:38 34.86116 -115.30568 37763 ft 383 kts 241°
2026-04-26 05:39 34.83609 -115.36295 37768 ft 383 kts 241°
2026-04-26 05:39 34.81100 -115.42020 37772 ft 383 kts 241°
2026-04-26 05:40 34.78673 -115.47794 37786 ft 384 kts 245°
2026-04-26 05:40 34.76507 -115.53723 37787 ft 383 kts 245°
2026-04-26 05:41 34.74332 -115.59645 37791 ft 383 kts 244°
2026-04-26 05:41 34.72162 -115.65531 37782 ft 380 kts 244°
2026-04-26 05:42 34.69997 -115.71390 37788 ft 380 kts 244°
2026-04-26 05:42 34.67830 -115.77247 37788 ft 380 kts 244°
2026-04-26 05:43 34.65658 -115.83108 37788 ft 380 kts 244°
2026-04-26 05:43 34.63484 -115.88963 37794 ft 380 kts 244°
2026-04-26 05:44 34.61319 -115.94822 37800 ft 380 kts 245°
2026-04-26 05:44 34.59181 -116.00634 37811 ft 368 kts 245°
2026-04-26 05:45 34.58153 -116.03424 37595 ft 359 kts 245°
2026-04-26 05:45 34.57136 -116.06180 37096 ft 355 kts 244°
2026-04-26 05:45 34.56141 -116.08870 36875 ft 345 kts 244°
2026-04-26 05:45 34.55166 -116.11505 36397 ft 341 kts 244°
2026-04-26 05:46 34.54191 -116.14135 35769 ft 342 kts 244°
2026-04-26 05:46 34.53213 -116.16772 35171 ft 343 kts 244°
2026-04-26 05:46 34.52232 -116.19413 34560 ft 345 kts 244°
2026-04-26 05:46 34.51246 -116.22068 33944 ft 347 kts 244°
2026-04-26 05:47 34.50253 -116.24737 33241 ft 348 kts 244°
2026-04-26 05:47 34.49253 -116.27424 32530 ft 350 kts 244°
2026-04-26 05:47 34.48250 -116.30118 31841 ft 351 kts 244°
2026-04-26 05:47 34.47243 -116.32821 31165 ft 352 kts 244°
2026-04-26 05:48 34.46234 -116.35526 30512 ft 353 kts 244°
2026-04-26 05:48 34.45221 -116.38241 29853 ft 354 kts 244°
2026-04-26 05:48 34.44204 -116.40964 29088 ft 355 kts 243°
2026-04-26 05:48 34.43187 -116.43685 28337 ft 355 kts 243°
2026-04-26 05:49 34.42168 -116.46409 27603 ft 355 kts 243°
2026-04-26 05:49 34.40051 -116.51817 26211 ft 355 kts 242°
2026-04-26 05:49 34.38935 -116.54484 25533 ft 355 kts 242°
2026-04-26 05:50 34.37818 -116.57149 24886 ft 355 kts 242°
2026-04-26 05:50 34.36705 -116.59820 24256 ft 354 kts 242°
2026-04-26 05:50 34.35613 -116.62455 23954 ft 345 kts 242°
2026-04-26 05:50 34.34561 -116.65002 23830 ft 333 kts 242°
2026-04-26 05:51 34.33524 -116.67512 23715 ft 337 kts 242°
2026-04-26 05:51 34.32482 -116.70060 23644 ft 338 kts 243°
2026-04-26 05:51 34.31459 -116.72606 23432 ft 335 kts 243°
2026-04-26 05:51 34.30447 -116.75137 22891 ft 335 kts 243°
2026-04-26 05:52 34.29433 -116.77667 21981 ft 342 kts 244°
2026-04-26 05:52 34.28376 -116.80296 21280 ft 343 kts 244°
2026-04-26 05:52 34.27350 -116.82841 20723 ft 341 kts 244°
2026-04-26 05:52 34.26314 -116.85406 20176 ft 338 kts 244°
2026-04-26 05:53 34.25287 -116.87951 19623 ft 337 kts 244°
2026-04-26 05:53 34.24263 -116.90484 19155 ft 333 kts 244°
2026-04-26 05:53 34.23251 -116.92986 18970 ft 331 kts 245°
2026-04-26 05:53 34.22237 -116.95493 18862 ft 333 kts 245°
2026-04-26 05:54 34.21236 -116.98028 18566 ft 335 kts 248°
2026-04-26 05:54 34.20454 -117.00666 18235 ft 332 kts 252°
2026-04-26 05:54 34.19756 -117.03286 17817 ft 325 kts 252°
2026-04-26 05:54 34.19055 -117.05892 17447 ft 327 kts 252°
2026-04-26 05:55 34.18352 -117.08492 17116 ft 323 kts 252°
2026-04-26 05:55 34.17659 -117.11046 17010 ft 320 kts 252°
2026-04-26 05:55 34.16965 -117.13604 17009 ft 323 kts 252°
2026-04-26 05:55 34.16268 -117.16177 17020 ft 320 kts 252°
2026-04-26 05:56 34.15566 -117.18744 16998 ft 323 kts 252°
2026-04-26 05:56 34.14863 -117.21304 16791 ft 321 kts 251°
2026-04-26 05:56 34.14161 -117.23852 16383 ft 319 kts 251°
2026-04-26 05:56 34.13463 -117.26382 15875 ft 317 kts 251°
2026-04-26 05:57 34.12769 -117.28900 15343 ft 316 kts 251°
2026-04-26 05:57 34.12078 -117.31406 14832 ft 314 kts 251°
2026-04-26 05:57 34.11391 -117.33895 14327 ft 312 kts 251°
2026-04-26 05:57 34.10712 -117.36358 14083 ft 309 kts 251°
2026-04-26 05:58 34.10037 -117.38850 14016 ft 314 kts 252°
2026-04-26 05:58 34.09408 -117.41357 13899 ft 311 kts 252°
2026-04-26 05:58 34.08795 -117.43857 13501 ft 310 kts 253°
2026-04-26 05:58 34.08186 -117.46337 13123 ft 306 kts 253°
2026-04-26 05:59 34.07579 -117.48799 13012 ft 308 kts 253°
2026-04-26 05:59 34.06983 -117.51281 12996 ft 309 kts 253°
2026-04-26 05:59 34.06285 -117.53721 12983 ft 307 kts 246°
2026-04-26 05:59 34.05402 -117.56062 12756 ft 306 kts 245°
2026-04-26 06:00 34.04505 -117.58386 12388 ft 305 kts 245°
2026-04-26 06:00 34.03608 -117.60698 11967 ft 304 kts 245°
2026-04-26 06:00 34.02716 -117.63003 11454 ft 303 kts 245°
2026-04-26 06:00 34.01828 -117.65304 10941 ft 302 kts 245°
2026-04-26 06:01 34.01023 -117.67636 10429 ft 301 kts 251°
2026-04-26 06:01 34.00513 -117.70082 9925 ft 301 kts 259°
2026-04-26 06:01 34.00262 -117.72580 9377 ft 300 kts 262°
2026-04-26 06:01 34.00037 -117.75020 9037 ft 284 kts 262°
2026-04-26 06:02 33.99818 -117.77308 8761 ft 268 kts 262°
2026-04-26 06:02 33.99604 -117.79498 8327 ft 259 kts 262°
2026-04-26 06:02 33.99389 -117.81654 7893 ft 260 kts 262°
2026-04-26 06:02 33.99169 -117.83813 7469 ft 260 kts 260°
2026-04-26 06:03 33.98720 -117.85913 7124 ft 257 kts 250°
2026-04-26 06:03 33.98261 -117.87974 6940 ft 255 kts 262°
2026-04-26 06:03 33.98268 -117.90122 7002 ft 260 kts 275°
2026-04-26 06:03 33.98388 -117.92277 6983 ft 257 kts 266°
2026-04-26 06:04 33.98212 -117.94416 6757 ft 257 kts 262°
2026-04-26 06:04 33.97987 -117.96561 6302 ft 260 kts 262°
2026-04-26 06:04 33.97767 -117.98731 5788 ft 262 kts 263°
2026-04-26 06:04 33.97553 -118.00832 5837 ft 243 kts 263°
2026-04-26 06:05 33.97348 -118.02843 5888 ft 244 kts 263°
2026-04-26 06:05 33.97144 -118.04841 5767 ft 236 kts 263°
2026-04-26 06:05 33.96948 -118.06765 5570 ft 226 kts 263°
2026-04-26 06:05 33.96760 -118.08607 5336 ft 217 kts 263°
2026-04-26 06:06 33.96640 -118.09787 5171 ft 213 kts 263°
2026-04-26 06:06 33.96462 -118.11538 4912 ft 208 kts 263°
2026-04-26 06:06 33.96285 -118.13268 4633 ft 208 kts 263°
2026-04-26 06:06 33.96110 -118.14985 4342 ft 205 kts 263°
2026-04-26 06:07 33.95883 -118.17213 3972 ft 198 kts 263°
2026-04-26 06:07 33.95717 -118.18845 3697 ft 190 kts 263°
2026-04-26 06:07 33.95611 -118.19881 3521 ft 186 kts 263°
2026-04-26 06:07 33.95457 -118.21393 3335 ft 177 kts 264°
2026-04-26 06:08 33.95308 -118.22859 3094 ft 179 kts 263°
2026-04-26 06:08 33.95157 -118.24335 2853 ft 175 kts 263°
2026-04-26 06:08 33.95011 -118.25762 2607 ft 169 kts 263°
2026-04-26 06:08 33.94875 -118.27090 2423 ft 150 kts 263°
2026-04-26 06:09 33.94756 -118.28263 2210 ft 136 kts 263°
2026-04-26 06:09 33.94641 -118.29395 2030 ft 136 kts 263°
2026-04-26 06:09 33.94525 -118.30528 1845 ft 138 kts 262°
2026-04-26 06:09 33.94410 -118.31661 1659 ft 134 kts 263°
2026-04-26 06:10 33.94295 -118.32799 1371 ft 139 kts 263°
2026-04-26 06:10 33.94188 -118.33955 1080 ft 137 kts 263°
2026-04-26 06:10 33.94059 -118.35044 855 ft 128 kts 262°
2026-04-26 06:10 33.93957 -118.36109 574 ft 127 kts 265°
2026-04-26 06:11 33.93846 -118.37209 379 ft 137 kts 264°
2026-04-26 06:11 33.93737 -118.38350 181 ft 131 kts 260°
2026-04-26 06:11 33.93633 -118.39347 125 ft 90 kts 261°
2026-04-26 06:11 33.93597 -118.39739 122 ft 33 kts 278°
2026-04-26 06:12 33.93651 -118.39941 123 ft 14 kts 291°
2026-04-26 06:12 33.93657 -118.39961 121 ft 0 kts 286°
2026-04-26 06:12 33.93657 -118.39962 122 ft 1 kts 286°
2026-04-26 06:13 33.93657 -118.39963 122 ft 0 kts 286°
2026-04-26 06:13 33.93663 -118.39988 124 ft 12 kts 284°
2026-04-26 06:13 33.93656 -118.40139 124 ft 17 kts 263°
2026-04-26 06:14 33.93644 -118.40252 125 ft 9 kts 265°
2026-04-26 06:14 33.93659 -118.40347 122 ft 15 kts 295°
2026-04-26 06:14 33.93752 -118.40420 120 ft 20 kts 349°
2026-04-26 06:14 33.93829 -118.40467 124 ft 11 kts 279°
2026-04-26 06:15 33.93871 -118.40526 124 ft 11 kts 349°
2026-04-26 06:15 33.93971 -118.40544 123 ft 16 kts 355°
2026-04-26 06:15 33.94017 -118.40538 124 ft 0 kts 67°
2026-04-26 06:15 33.94023 -118.40505 125 ft 4 kts 82°
2026-04-26 06:16 33.94025 -118.40492 125 ft 3 kts 83°
2026-04-26 06:16 33.94025 -118.40491 125 ft 0 kts 84°